Location: Grums
(59.3529°N, 13.1129°E)
Time: 23:17:07
(UTC+02:00)

Envisat - Pass Details

Date: 27 September 2021
Orbit: 764 x 766 km, 98.2° (Epoch: 19 October)

Event Time Altitude Azimuth Distance (km) Brightness Sun altitude
Rises 04:39:19 0° 24° (NNE) 3,247 7.1 -18.4°
Reaches altitude 10° 04:42:56 10° 51° (NE) 2,314 6.7 -18.0°
Maximum altitude 04:45:25 14° 80° (E) 2,073 6.3 -17.8°
Drops below altitude 10° 04:47:53 10° 110° (ESE) 2,306 6.1 -17.5°
Sets 04:51:28 0° 136° (SE) 3,226 6.5 -17.1°
